When you browse on this site, cookies collect data to enhance your experience and personalize the content and advertising you see.
Visit our Privacy Policy to learn more. By continuing to use the site, you agree to this use of cookies and data.
  • In Sweden
  • List of Countries
  • For 7 days
  • Water Temperature
  • Weather Map
  • Weather Widgets
  • user-avatar
    Login

    Hourly Weather Chimoio

    Today, 18 February, Tuesday

    Time Temperature Precipitation Wind Pressure Humidity
    00:00 +19°C° 0 mm 0 mps 701 mmHg 94%
    01:00 +21°C° 0 mm 1 mps 701 mmHg 94%
    02:00 +20°C° 0 mm 1 mps 701 mmHg 94%
    03:00 +20°C° 0 mm 1 mps 701 mmHg 94%
    04:00 +20°C° 0 mm 1 mps 701 mmHg 94%
    05:00 +20°C° 0 mm 1 mps 701 mmHg 94%
    06:00 +22°C° 0 mm 1 mps 702 mmHg 89%
    07:00 +24°C° 0 mm 1 mps 703 mmHg 84%
    08:00 +26°C° 0 mm 1 mps 704 mmHg 79%
    09:00 +27°C° 0 mm 1 mps 704 mmHg 73%
    10:00 +28°C° 0 mm 1 mps 703 mmHg 67%
    11:00 +30°C° 0 mm 1 mps 703 mmHg 61%
    12:00 +30°C° 0 mm 1 mps 703 mmHg 61%
    13:00 +30°C° 0 mm 2 mps 703 mmHg 61%
    14:00 +30°C° 0 mm 2 mps 702 mmHg 61%
    15:00 +29°C° 0 mm 2 mps 702 mmHg 67%
    16:00 +29°C° 0 mm 2 mps 701 mmHg 73%
    17:00 +28°C° 0 mm 2 mps 701 mmHg 80%
    18:00 +26°C° 0 mm 1 mps 701 mmHg 85%
    19:00 +25°C° 0 mm 1 mps 702 mmHg 90%
    20:00 +23°C° 0 mm 1 mps 702 mmHg 95%
    21:00 +23°C° 0 mm 1 mps 702 mmHg 95%
    22:00 +20°C° 0 mm 0 mps 702 mmHg 95%
    23:00 +20°C° 0 mm 0 mps 702 mmHg 95%

    Tomorrow, 19 February, Wednesday

    Time Temperature Precipitation Wind Pressure Humidity
    00:00 +20°C° 0 mm 0 mps 702 mmHg 95%
    01:00 +19°C° 0 mm 0 mps 702 mmHg 95%
    02:00 +19°C° 0 mm 0 mps 702 mmHg 96%
    03:00 +19°C° 0 mm 0 mps 702 mmHg 96%
    04:00 +19°C° 0 mm 0 mps 702 mmHg 96%
    05:00 +19°C° 0 mm 0 mps 702 mmHg 96%
    06:00 +22°C° 0 mm 1 mps 702 mmHg 92%
    07:00 +24°C° 0 mm 1 mps 703 mmHg 88%
    08:00 +25°C° 0 mm 1 mps 704 mmHg 85%
    09:00 +26°C° 0.1 mm 1 mps 703 mmHg 80%
    10:00 +27°C° 0.1 mm 1 mps 703 mmHg 75%
    11:00 +28°C° 0.1 mm 2 mps 703 mmHg 70%
    12:00 +29°C° 0.2 mm 2 mps 702 mmHg 71%
    13:00 +29°C° 0.2 mm 2 mps 702 mmHg 71%
    14:00 +29°C° 0.2 mm 2 mps 701 mmHg 71%
    15:00 +28°C° 0.2 mm 2 mps 701 mmHg 75%
    16:00 +27°C° 0.2 mm 2 mps 701 mmHg 80%
    17:00 +27°C° 0.2 mm 2 mps 700 mmHg 84%
    18:00 +26°C° 0 mm 1 mps 701 mmHg 87%
    19:00 +24°C° 0 mm 1 mps 701 mmHg 91%
    20:00 +21°C° 0 mm 0 mps 701 mmHg 94%
    21:00 +20°C° 0 mm 0 mps 701 mmHg 94%
    22:00 +20°C° 0 mm 0 mps 702 mmHg 94%
    23:00 +20°C° 0 mm 0 mps 702 mmHg 94%

    Day after tomorrow, 20 February, Thursday

    Time Temperature Precipitation Wind Pressure Humidity
    00:00 +22°C° 0 mm 1 mps 701 mmHg 95%
    01:00 +21°C° 0 mm 1 mps 701 mmHg 95%
    02:00 +21°C° 0 mm 1 mps 701 mmHg 96%
    03:00 +21°C° 0 mm 1 mps 701 mmHg 96%
    04:00 +21°C° 0 mm 1 mps 701 mmHg 96%
    05:00 +21°C° 0 mm 1 mps 701 mmHg 96%
    06:00 +22°C° 0 mm 1 mps 701 mmHg 91%
    07:00 +24°C° 0 mm 1 mps 702 mmHg 87%
    08:00 +25°C° 0 mm 1 mps 702 mmHg 82%
    09:00 +27°C° 0 mm 1 mps 702 mmHg 76%
    10:00 +28°C° 0 mm 1 mps 702 mmHg 71%
    11:00 +30°C° 0 mm 2 mps 702 mmHg 65%
    12:00 +30°C° 0.2 mm 2 mps 701 mmHg 66%
    13:00 +30°C° 0.2 mm 2 mps 700 mmHg 67%
    14:00 +30°C° 0.2 mm 2 mps 700 mmHg 68%
    15:00 +29°C° 0.2 mm 2 mps 699 mmHg 73%
    16:00 +28°C° 0.2 mm 2 mps 699 mmHg 78%
    17:00 +28°C° 0.2 mm 2 mps 699 mmHg 84%
    18:00 +26°C° 0 mm 1 mps 699 mmHg 87%
    19:00 +25°C° 0 mm 1 mps 699 mmHg 91%
    20:00 +21°C° 0 mm 0 mps 699 mmHg 95%
    21:00 +21°C° 0 mm 0 mps 700 mmHg 95%
    22:00 +21°C° 0 mm 0 mps 700 mmHg 96%
    23:00 +20°C° 0 mm 0 mps 700 mmHg 96%

    21 February, Friday

    Time Temperature Precipitation Wind Pressure Humidity
    00:00 +20°C° 0 mm 0 mps 700 mmHg 96%
    01:00 +20°C° 0 mm 0 mps 700 mmHg 96%
    02:00 +22°C° 0 mm 1 mps 700 mmHg 97%
    03:00 +22°C° 0 mm 1 mps 700 mmHg 97%
    04:00 +20°C° 0 mm 0 mps 700 mmHg 97%
    05:00 +20°C° 0 mm 0 mps 700 mmHg 97%
    06:00 +21°C° 0 mm 0 mps 700 mmHg 93%
    07:00 +23°C° 0 mm 0 mps 701 mmHg 89%
    08:00 +24°C° 0 mm 0 mps 701 mmHg 86%
    15:00 +30°C° 0.7 mm 1 mps 699 mmHg 74%
    16:00 +29°C° 0.7 mm 2 mps 699 mmHg 81%
    17:00 +28°C° 0.7 mm 2 mps 699 mmHg 87%
    18:00 +26°C° 0.7 mm 1 mps 699 mmHg 90%
    19:00 +25°C° 0.7 mm 1 mps 699 mmHg 92%
    20:00 +24°C° 0.7 mm 1 mps 700 mmHg 95%
    21:00 +23°C° 0.2 mm 1 mps 700 mmHg 95%
    22:00 +23°C° 0.2 mm 1 mps 701 mmHg 95%
    23:00 +23°C° 0.2 mm 1 mps 701 mmHg 95%

    22 February, Saturday

    Time Temperature Precipitation Wind Pressure Humidity
    00:00 +21°C° 0 mm 0 mps 701 mmHg 96%
    01:00 +20°C° 0 mm 0 mps 700 mmHg 96%
    02:00 +20°C° 0 mm 0 mps 700 mmHg 97%
    03:00 +20°C° 0 mm 0 mps 700 mmHg 97%
    04:00 +20°C° 0 mm 0 mps 700 mmHg 97%
    05:00 +20°C° 0 mm 0 mps 700 mmHg 97%
    06:00 +21°C° 0.2 mm 0 mps 701 mmHg 96%
    07:00 +24°C° 0.2 mm 1 mps 701 mmHg 95%
    08:00 +25°C° 0.2 mm 1 mps 702 mmHg 94%
    09:00 +26°C° 0.6 mm 1 mps 701 mmHg 91%
    10:00 +27°C° 0.6 mm 1 mps 701 mmHg 88%
    11:00 +27°C° 0.6 mm 1 mps 701 mmHg 85%
    12:00 +28°C° 0.9 mm 1 mps 700 mmHg 85%
    13:00 +28°C° 0.9 mm 2 mps 700 mmHg 85%
    14:00 +28°C° 0.9 mm 2 mps 699 mmHg 85%
    15:00 +28°C° 0.6 mm 2 mps 699 mmHg 86%
    16:00 +27°C° 0.6 mm 1 mps 698 mmHg 87%
    17:00 +27°C° 0.6 mm 1 mps 698 mmHg 88%
    18:00 +26°C° 0.1 mm 1 mps 698 mmHg 90%
    19:00 +25°C° 0.1 mm 1 mps 699 mmHg 92%
    20:00 +22°C° 0.1 mm 0 mps 699 mmHg 94%
    21:00 +21°C° 0.1 mm 0 mps 699 mmHg 95%
    22:00 +21°C° 0.1 mm 0 mps 700 mmHg 96%
    23:00 +21°C° 0.1 mm 0 mps 700 mmHg 96%

    23 February, Sunday

    Time Temperature Precipitation Wind Pressure Humidity
    00:00 +21°C° 0 mm 0 mps 699 mmHg 96%
    01:00 +20°C° 0 mm 0 mps 699 mmHg 96%
    02:00 +20°C° 0 mm 0 mps 699 mmHg 96%
    03:00 +20°C° 0 mm 0 mps 699 mmHg 96%
    04:00 +20°C° 0 mm 0 mps 699 mmHg 96%
    05:00 +20°C° 0 mm 0 mps 699 mmHg 96%
    06:00 +21°C° 0 mm 0 mps 699 mmHg 93%
    07:00 +22°C° 0 mm 0 mps 700 mmHg 90%
    08:00 +26°C° 0 mm 1 mps 700 mmHg 87%
    09:00 +26°C° 0 mm 0 mps 700 mmHg 79%
    10:00 +28°C° 0 mm 0 mps 701 mmHg 71%
    11:00 +30°C° 0 mm 0 mps 701 mmHg 62%
    12:00 +31°C° 0.5 mm 1 mps 700 mmHg 68%
    13:00 +30°C° 0.5 mm 2 mps 699 mmHg 74%
    14:00 +29°C° 0.5 mm 2 mps 699 mmHg 80%
    15:00 +28°C° 0.9 mm 2 mps 698 mmHg 84%
    16:00 +27°C° 0.9 mm 2 mps 698 mmHg 88%
    17:00 +26°C° 0.9 mm 2 mps 698 mmHg 92%
    18:00 +25°C° 0.4 mm 2 mps 698 mmHg 93%
    19:00 +24°C° 0.4 mm 1 mps 699 mmHg 95%
    20:00 +23°C° 0.4 mm 1 mps 699 mmHg 96%
    21:00 +23°C° 0 mm 1 mps 700 mmHg 96%
    22:00 +20°C° 0 mm 0 mps 700 mmHg 96%
    23:00 +20°C° 0 mm 0 mps 700 mmHg 97%
    Show more